Weather History for Clearfield, PA

Change the Weather History Date:

Wednesday, February 20, 2013

  Actual Average (KDUJ) Record (KDUJ)
Temperature  
Mean Temperature 18 °F 27 °F  
Max Temperature 21 °F 36 °F 58 °F (1994)
Min Temperature 15 °F 19 °F -5 °F (1966)
Degree Days  
Heating Degree Days 47 38  
Month to date heating degree days 788  
Since 1 July heating degree days 4732  
Cooling Degree Days 0 0  
Month to date cooling degree days 0  
Year to date cooling degree days 0  
Moisture  
Dew Point 9 °F    
Average Humidity 67    
Maximum Humidity 74    
Minimum Humidity 52    
Precipitation  
Precipitation 0.00 in 0.08 in 0.70 in (2007)
Month to date precipitation 1.61  
Sea Level Pressure  
Sea Level Pressure 29.98 in    
Wind  
Wind Speed 15 mph (West)    
Max Wind Speed 24 mph    
Max Gust Speed 36 mph    
Visibility 6 miles    
Events Snow    
T = Trace of Precipitation, MM = Missing Value Source: NWS Daily Summary

Daily Weather History Graph

Daily Weather History Graph

Search for Another Location

Airport:

Trip Planner

Search our weather history database for the weather conditions in past years. The results will help you decide how hot, cold, wet, or windy it might be!

Date:

Astronomy

Feb. 20, 2013 Rise Set
Actual Time 7:00 AM EST 5:54 PM EST
Civil Twilight 6:32 AM EST 6:22 PM EST
Nautical Twilight 6:00 AM EST 6:54 PM EST
Astronomical Twilight 5:29 AM EST 7:26 PM EST
Moon 1:12 PM EST (2/20) 3:21 AM EST (2/20)
Length of Visible Light 11h 49m
Length of Day
10h 53m
Waxing Gibbous, 76% of the Moon is Illuminated
Feb 20
Waxing Gibbous
Feb 25
Full
Mar 4
Last Quarter
Mar 11
New
Mar 19
First Quarter

Hourly Weather History & Observations

Time (EST) Temp. Windchill Dew Point Humidity Pressure Visibility Wind Dir Wind Speed Gust Speed Precip Events Conditions
12:02 AM 21.2 °F 5.6 °F 12.2 °F 68% 29.81 in 5.0 mi West 20.7 mph 27.6 mph 0.00 in Snow Light Snow
12:54 AM 19.9 °F 9.3 °F 12.9 °F 74% 29.87 in 4.0 mi West 9.2 mph 19.6 mph 0.00 in Snow Light Snow
1:54 AM 19.9 °F 8.6 °F 12.9 °F 74% 29.87 in 5.0 mi West 10.4 mph - 0.00 in Snow Light Snow
2:12 AM 19.4 °F 7.9 °F 12.2 °F 74% 29.82 in 5.0 mi West 10.4 mph - 0.00 in Snow Light Snow
2:54 AM 19.0 °F 5.0 °F 12.0 °F 74% 29.88 in 4.0 mi West 15.0 mph 26.5 mph 0.00 in Snow Light Snow
3:44 AM 17.6 °F 1.3 °F 8.6 °F 68% 29.85 in 9.0 mi West 19.6 mph 25.3 mph 0.00 in Snow Light Snow
3:54 AM 17.1 °F 0.1 °F 7.0 °F 65% 29.90 in 9.0 mi West 20.7 mph 32.2 mph 0.00 in   Overcast
4:54 AM 16.0 °F 0.6 °F 5.0 °F 62% 29.92 in 10.0 mi West 16.1 mph 25.3 mph N/A   Overcast
5:46 AM 15.8 °F 2.7 °F 6.8 °F 68% 29.89 in 10.0 mi WSW 11.5 mph 18.4 mph N/A   Overcast
5:54 AM 16.0 °F 1.7 °F 6.1 °F 65% 29.95 in 10.0 mi West 13.8 mph 21.9 mph N/A   Overcast
7:54 AM 16.0 °F 1.1 °F 6.1 °F 65% 29.98 in 9.0 mi WSW 15.0 mph 24.2 mph 0.00 in Snow Light Snow
8:10 AM 15.8 °F 1.4 °F 8.6 °F 73% 29.91 in 3.0 mi WSW 13.8 mph 23.0 mph 0.00 in Snow Light Snow
8:21 AM 15.8 °F 2.1 °F 8.6 °F 73% 29.91 in 2.5 mi WSW 12.7 mph 24.2 mph 0.00 in Snow Light Snow
8:54 AM 16.0 °F 2.3 °F 9.0 °F 74% 29.98 in 2.5 mi WSW 12.7 mph 19.6 mph 0.00 in Snow Light Snow
9:18 AM 17.6 °F 3.2 °F 8.6 °F 68% 29.91 in 4.0 mi WSW 15.0 mph 21.9 mph 0.00 in Snow Light Snow
9:54 AM 17.1 °F 2.0 °F 9.0 °F 71% 29.98 in 5.0 mi WSW 16.1 mph 23.0 mph 0.00 in Snow Light Snow
10:54 AM 18.0 °F 2.2 °F 9.0 °F 68% 29.99 in 2.5 mi West 18.4 mph 25.3 mph 0.00 in Snow Light Snow
11:05 AM 17.6 °F 3.7 °F 10.4 °F 73% 29.92 in 1.5 mi West 13.8 mph 24.2 mph 0.00 in Snow Light Snow
11:20 AM 19.4 °F 3.6 °F 10.4 °F 68% 29.92 in 2.5 mi West 19.6 mph 27.6 mph 0.00 in Snow Light Snow
11:27 AM 19.4 °F 4.1 °F 8.6 °F 63% 29.92 in 4.0 mi West 18.4 mph 27.6 mph 0.00 in Snow Light Snow
11:43 AM 19.4 °F 2.8 °F 8.6 °F 63% 29.92 in 6.0 mi WSW 21.9 mph 35.7 mph 0.00 in Snow Light Snow
11:54 AM 19.9 °F 4.8 °F 7.0 °F 57% 29.99 in 9.0 mi West 18.4 mph 32.2 mph 0.00 in   Overcast
12:54 PM 19.9 °F 5.7 °F 7.0 °F 57% 30.00 in 8.0 mi West 16.1 mph 32.2 mph 0.00 in Snow Light Snow
1:20 PM 19.4 °F 5.5 °F 8.6 °F 63% 29.93 in 2.5 mi West 15.0 mph 32.2 mph 0.00 in Snow Light Snow
1:30 PM 19.4 °F 4.5 °F 10.4 °F 68% 29.93 in 1.5 mi West 17.3 mph 28.8 mph 0.00 in Snow Light Snow
1:47 PM 19.4 °F 6.0 °F 12.2 °F 74% 29.94 in 0.5 mi WNW 13.8 mph 27.6 mph 0.00 in Snow Snow
1:54 PM 19.0 °F 4.0 °F 10.9 °F 71% 30.01 in 0.5 mi West 17.3 mph 32.2 mph 0.00 in Snow Snow
1:58 PM 19.4 °F 5.0 °F 10.4 °F 68% 29.94 in 2.0 mi West 16.1 mph 32.2 mph 0.00 in Snow Light Snow
2:00 PM 19.4 °F 5.5 °F 8.6 °F 63% 29.94 in 3.0 mi West 15.0 mph 32.2 mph 0.00 in Snow Light Snow
2:54 PM 19.9 °F 2.8 °F 8.1 °F 60% 30.03 in 9.0 mi WNW 24.2 mph 32.2 mph 0.00 in   Overcast
3:54 PM 19.9 °F 6.7 °F 5.0 °F 52% 30.06 in 10.0 mi WNW 13.8 mph 32.2 mph N/A   Overcast
4:54 PM 19.0 °F 5.0 °F 3.9 °F 52% 30.09 in 10.0 mi West 15.0 mph 25.3 mph N/A   Overcast
5:54 PM 18.0 °F 3.6 °F 9.0 °F 68% 30.13 in 3.0 mi West 15.0 mph 21.9 mph 0.00 in Snow Light Snow
6:13 PM 17.6 °F 7.3 °F 10.4 °F 73% 30.06 in 3.0 mi West 8.1 mph - 0.00 in Snow Light Snow
6:32 PM 17.6 °F 4.3 °F 10.4 °F 73% 30.07 in 8.0 mi WNW 12.7 mph 18.4 mph 0.00 in Snow Light Snow
6:54 PM 18.0 °F 6.9 °F 9.0 °F 68% 30.15 in 10.0 mi West 9.2 mph 16.1 mph 0.00 in   Overcast
7:54 PM 17.1 °F 4.3 °F 7.0 °F 65% 30.14 in 10.0 mi West 11.5 mph - N/A   Overcast
8:54 PM 18.0 °F 4.8 °F 8.1 °F 65% 30.14 in 10.0 mi West 12.7 mph 19.6 mph N/A   Overcast
9:10 PM 17.6 °F 5.7 °F 8.6 °F 68% 30.07 in 10.0 mi West 10.4 mph 20.7 mph 0.00 in Snow Light Snow
9:43 PM 17.6 °F 6.4 °F 8.6 °F 68% 30.07 in 10.0 mi West 9.2 mph 18.4 mph 0.00 in   Overcast
9:54 PM 18.0 °F 7.7 °F 9.0 °F 68% 30.15 in 10.0 mi West 8.1 mph 19.6 mph 0.00 in   Overcast
10:54 PM 18.0 °F 6.9 °F 8.1 °F 65% 30.15 in 9.0 mi West 9.2 mph 20.7 mph 0.00 in Snow Light Snow
11:54 PM 17.1 °F 4.3 °F 9.0 °F 71% 30.14 in 6.0 mi West 11.5 mph 18.4 mph 0.00 in Snow Light Snow